Location: Erlenbrunn
(49.1717°N, 7.6142°E)
Time: 12:40:36
(UTC+00:00)

Helios 1A Rocket - Pass Details

Date: 25 November 2020
Orbit: 564 x 585 km, 98.3° (Epoch: 26 January)

Event Time Altitude Azimuth Distance (km) Brightness Sun altitude
Exits shadow 17:12:31 18° 117° (ESE) 1,420 4.5 -15.0°
Maximum altitude 17:14:48 31° 66° (ENE) 1,005 3.6 -15.4°
Drops below altitude 10° 17:18:23 10° 4° (N) 1,871 5.3 -15.9°
Sets 17:20:41 0° 354° (N) 2,773 6.3 -16.3°
